Regional Weather Roundup
Issued by NWS Kansas City/Pleasant Hill, MO

Home | Current Version | Previous Version | Text Only | Print | Product List | Glossary On
Versions: 1 2 3 4 5 6 7 8 9 10 11 12 13 14 15 16 17 18 19 20 21 22 23 24 25 26 27 28 29 30 31 32 33 34 35 36 37 38 39 40 41 42 43 44 45 46 47 48 49 50
731
ASUS43 KEAX 291810
RWREAX

WEATHER ROUNDUP FOR EASTERN KANSAS AND NORTHWEST MISSOURI
NATIONAL WEATHER SERVICE KANSAS CITY/PLEASANT HILL MO
100 PM CDT THU SEP 29 2016

KSZ040-057-103>105-MOZ028-029-037-043-291900-
...KANSAS CITY METROPOLITAN AREA...

CITY           SKY/WX    TMP DP  RH WIND       PRES   REMARKS
K.C. INTL      FAIR      68  49  50 N13       30.37F
6HR MIN TEMP:  47; 6HR MAX TEMP:  68;

K.C. DOWNTOWN  FAIR      69  51  52 N5        30.35F
6HR MIN TEMP:  52; 6HR MAX TEMP:  70;

LEES SUMMIT    FAIR      68  49  50 N9        30.36F
6HR MIN TEMP:  50; 6HR MAX TEMP:  69;

OLATHE - IXD   FAIR      68  51  54 N13G20    30.37F
6HR MIN TEMP:  48; 6HR MAX TEMP:  68;

OLATHE - OJC   FAIR      67  48  50 N8        30.36F
6HR MIN TEMP:  49; 6HR MAX TEMP:  67;

LAWRENCE       FAIR      70  51  51 N14       30.37F

$$

MOZ001>008-011>017-020>025-030>033-038>040-044>046-053-054-291900-
...NORTHERN AND CENTRAL MISSOURI...

CITY           SKY/WX    TMP DP  RH WIND       PRES   REMARKS
ST. JOSEPH     FAIR      70  49  47 N10       30.38F
6HR MIN TEMP:  46; 6HR MAX TEMP:  71;

MOSBY          FAIR      68  45  42 NW10      30.35S
WHITEMAN AFB   SUNNY     71  48  43 N17       30.31F
6HR MIN TEMP:  47; 6HR MAX TEMP:  71;

CLINTON        FAIR      68  48  49 N13       30.33S
SEDALIA        FAIR      73  45  36 N12G24    30.31F
6HR MIN TEMP:  49; 6HR MAX TEMP:  73;

WARSAW         NOT AVBL
CHILLICOTHE      N/A     72  48  42 VRB7      30.34F
6HR MIN TEMP:  51; 6HR MAX TEMP:  72;

KIRKSVILLE     FAIR      72  52  49 N15G21    30.30F
6HR MIN TEMP:  49; 6HR MAX TEMP:  72;


$$

MOZ041-047>049-056>058-063>065-088>090-097-291900-
...EASTERN AND SOUTHERN MISSOURI...

CITY           SKY/WX    TMP DP  RH WIND       PRES   REMARKS
ST. LOUIS INTL PTSUNNY   65  53  65 NW12      30.20F
6HR MIN TEMP:  54; 6HR MAX TEMP:  65;

SPIRIT OF STL  CLOUDY    64  55  72 NW12      30.20F
COLUMBIA       FAIR      72  51  47 N21       30.26F
JEFFERSON CITY FAIR      71  52  50 N12       30.25F
ROLLA          FAIR      68  52  56 NW17      30.23F
OSAGE BEACH    FAIR      69  50  50 N7        30.28F
SPRINGFIELD    FAIR      70  44  39 N12       30.29F
BRANSON        MOSUNNY   68  46  45 NW10G21   30.29F
JOPLIN         FAIR      67  51  56 N7        30.34F
WEST PLAINS    FAIR      71  48  43 N14G22    30.25S

$$

IAZ060-094-KSZ022-034>040-054-083-096-NEZ052-066-093-291900-
...KANSAS...SOUTHEAST NEBRASKA AND IOWA...

CITY           SKY/WX    TMP DP  RH WIND       PRES   REMARKS
TOPEKA         FAIR      68  51  54 N8G17     30.38F
6HR MIN TEMP:  49; 6HR MAX TEMP:  69;

MANHATTAN      PTSUNNY   67  50  54 NE8       30.40F
EMPORIA        FAIR      68  49  50 N13       30.38F
CHANUTE        FAIR      70  50  49 N8        30.36F HAZE
WICHITA        FAIR      67  49  52 VRB7      30.40F
OMAHA          FAIR      68  50  52 N10       30.42F
LINCOLN        FAIR      68  49  50 VRB7      30.44F
FALLS CITY     FAIR      68  51  54 N9        30.39F
LAMONI         FAIR      67  50  54 N13G20    30.37F
DES MOINES     FAIR      70  48  45 N12G20    30.37F

$$





USA.gov is the U.S. government's official web portal to all federal, state and local government web resources and services.